Копьёво

Россия / Республика Хакасия     54°59′45″N   89°49′26″E
темп.,
°C
ветер,
м/с
пор.,
м/с
влажн.,
%
обл.,
%
осадки,
мм/ч
давл.,
гПа
погр.,
м
17 апреля, сб
сб1701:00+1с91295100 0.8 1012473
04:00−1с6994100 1.7 1014675
07:00−2ссз2795100 4.9 1017568
10:00−3с5684100 0.5 1019753
13:00−2с6771100 0.6 10211179
16:00−2с5659100 0.0 10221149
19:00−3ссв3565100 0.0 1023936
22:00−5св008142 0.0 102510
18 апреля, вс
вс1801:00−6ююв11845 0.0 102520
04:00−5ююв1280100 0.0 102370
07:00−4ю2676100 0.0 1021413
10:00−2ююз3566100 0.0 1019596
13:00+3юз5847100 0.0 10151878
16:00+3зюз5952100 0.0 10131760
19:00+2ююз3768100 0.0 1011230
22:000ю41077100 0.0 1008241
19 апреля, пн
пн1901:000ю41183100 0.3 1002298
04:00+1ююз3799100 3.2 999287
07:00−2зюз1119675 4.8 10011307
10:00−4з12216363 0.0 10071376
13:00−4з12175884 0.0 10141512
16:00−3зсз101357100 0.0 10181616
19:00−4зсз71060100 0.1 10221650
22:00−6зсз577060 0.1 10241070
20 апреля, вт
вт2001:00−7сз456995 0.3 1025958
04:00−8зсз466358 0.1 10261051
07:00−9зсз47625 0.1 1028909
10:00−6зсз4644100 0.0 10271704
13:00−4зсз4536100 0.1 10252198
16:00−3зсз4438100 0.1 10252217
19:00−4сз444780 0.1 10251300
22:00−5ссз12676 0.0 1025102
21 апреля, ср
ср2101:00−6зюз117019 0.1 102531
04:00−7ююз117181 0.0 102544
07:00−6ююз2365100 0.0 1025277
10:00−4ю3446100 0.0 1024903
13:00−2ю3436100 0.0 10231710
16:000юв3435100 0.0 10221835
19:00−1в4540100 0.0 1023855
22:00−3всв4955100 0.0 1025336